Location: Bun Machan
(52.1403°N, 7.3744°W)
Time: 16:36:00
(UTC+00:00)

X-37B - Pass Details

Date: 28 June 2021
Orbit: 383 x 392 km, 45.0° (Epoch: 01 July)

Event Time Altitude Azimuth Distance (km) Brightness Sun altitude
Rises 23:37:32 0° 260° (W) 2,258 4.5 -13.7°
Reaches altitude 10° 23:40:20 10° 233° (SW) 1,402 3.2 -13.8°
Enters shadow 23:40:38 11° 228° (SW) 1,340 3.0 -13.8°
